Satellite: SOHLA-1
Catalog number: 33496
Epoch time:      09135.90571186
Element set:    0347
Inclination:      098.0356 deg
RA of node:       245.7222 deg
Eccentricity:    0.0007493
Arg of perigee:   034.1945 deg
Mean anomaly:     325.9733 deg
Mean motion:   14.69432989 rev/day
Decay rate:        3.5e-07 rev/day^2
Epoch rev:           01653
Checksum:              320

Satellite: AO-27
Catalog number: 22825
Epoch time:      09135.87283545
Element set:    0243
Inclination:      098.4360 deg
RA of node:       090.3194 deg
Eccentricity:    0.0008465
Arg of perigee:   007.8447 deg
Mean anomaly:     352.2855 deg
Mean motion:   14.29265654 rev/day
Decay rate:       1.11e-06 rev/day^2
Epoch rev:           81529
Checksum:              318

Satellite: GO-32
Catalog number: 25397
Epoch time:      09135.73167847
Element set:     893
Inclination:      098.3273 deg
RA of node:       159.8087 deg
Eccentricity:    0.0001343
Arg of perigee:   035.8861 deg
Mean anomaly:     324.2401 deg
Mean motion:   14.23159124 rev/day
Decay rate:        9.6e-07 rev/day^2
Epoch rev:           56351
Checksum:              318

Satellite: CO-55
Catalog number: 27844
Epoch time:      09135.59410616
Element set:    0579
Inclination:      098.7128 deg
RA of node:       145.2216 deg
Eccentricity:    0.0008929
Arg of perigee:   236.3627 deg
Mean anomaly:     123.6691 deg
Mean motion:   14.20636842 rev/day
Decay rate:        3.3e-07 rev/day^2
Epoch rev:           30463
Checksum:              316

Satellite: IO-26
Catalog number: 22826
Epoch time:      09135.58874992
Element set:    0970
Inclination:      098.4271 deg
RA of node:       090.8054 deg
Eccentricity:    0.0009087
Arg of perigee:   002.9005 deg
Mean anomaly:     357.2228 deg
Mean motion:   14.29516772 rev/day
Decay rate:       -9.0e-08 rev/day^2
Epoch rev:           81535
Checksum:              328

Satellite: NO-44
Catalog number: 26931
Epoch time:      09135.54192557
Element set:    0169
Inclination:      067.0501 deg
RA of node:       148.4470 deg
Eccentricity:    0.0005407
Arg of perigee:   269.7031 deg
Mean anomaly:     090.3459 deg
Mean motion:   14.29556749 rev/day
Decay rate:       1.44e-06 rev/day^2
Epoch rev:           39791
Checksum:              322

Satellite: SO-50
Catalog number: 27607
Epoch time:      09135.49711827
Element set:     885
Inclination:      064.5568 deg
RA of node:       124.3731 deg
Eccentricity:    0.0070947
Arg of perigee:   213.0285 deg
Mean anomaly:     146.6359 deg
Mean motion:   14.71435057 rev/day
Decay rate:       -1.6e-07 rev/day^2
Epoch rev:           34386
Checksum:              322

Satellite: CO-57
Catalog number: 27848
Epoch time:      09135.49665576
Element set:    0526
Inclination:      098.7144 deg
RA of node:       144.1854 deg
Eccentricity:    0.0008885
Arg of perigee:   241.5858 deg
Mean anomaly:     118.4433 deg
Mean motion:   14.20438960 rev/day
Decay rate:        2.3e-07 rev/day^2
Epoch rev:           30458
Checksum:              339

/EX
SB KEPS @ AMSAT  $ORB09136.W
Orbital Elements  09136.WEATHER

HR AMSAT ORBITAL ELEMENTS FOR WEATHER SATELLITES
FROM WA5QGD FORT WORTH,TX May 16, 2009
Send Subscribe/unsubscribe to KEPS at 
http://www.amsat.org/mailman/listinfo/keps
BID: ORB09136.W
TO ALL RADIO AMATEURS BT

Satellite: NOAA-18
Catalog number: 28654
Epoch time:      09136.56842687
Element set:     900
Inclination:      098.9061 deg
RA of node:       080.0551 deg
Eccentricity:    0.0015401
Arg of perigee:   091.9993 deg
Mean anomaly:     268.2937 deg
Mean motion:   14.11255677 rev/day
Decay rate:      -1.51e-06 rev/day^2
Epoch rev:           20549
Checksum:              325

Satellite: RESURS
Catalog number: 25394
Epoch time:      09136.54503361
Element set:     213
Inclination:      098.3409 deg
RA of node:       170.4990 deg
Eccentricity:    0.0001324
Arg of perigee:   348.5256 deg
Mean anomaly:     011.5896 deg
Mean motion:   14.24182680 rev/day
Decay rate:        2.0e-08 rev/day^2
Epoch rev:           56389
Checksum:              291

Satellite: NOAA-19
Catalog number: 33591
Epoch time:      09136.54160471
Element set:     105
Inclination:      098.7456 deg
RA of node:       083.1292 deg
Eccentricity:    0.0013679
Arg of perigee:   337.2551 deg
Mean anomaly:     022.7986 deg
Mean motion:   14.10958800 rev/day
Decay rate:       3.57e-06 rev/day^2
Epoch rev:            1397
Checksum:              315

Satellite: FENGYUN1
Catalog number: 25730
Epoch time:      09136.51601177
Element set:     756
Inclination:      098.7548 deg
RA of node:       107.6303 deg
Eccentricity:    0.0021343
Arg of perigee:   313.8803 deg
Mean anomaly:     046.0601 deg
Mean motion:   14.07954074 rev/day
Decay rate:      -4.19e-06 rev/day^2
Epoch rev:           51586
Checksum:              290

Satellite: NOAA-12
Catalog number: 21263
Epoch time:      09135.96188229
Element set:    0140
Inclination:      098.7729 deg
RA of node:       144.0085 deg
Eccentricity:    0.0011338
Arg of perigee:   238.8558 deg
Mean anomaly:     121.1510 deg
Mean motion:   14.25578317 rev/day
Decay rate:        4.2e-07 rev/day^2
Epoch rev:           93580
Checksum:              300

